Flag for United Kingdom Weather past 2 weeks in Coventry, England, United Kingdom

Now
68 °F

Passing clouds.


Feels Like: 68 °F
Forecast: 55 / 65 °F
Wind: 14 mph from Southwest

Location: Coventry Airport

Current Time: Aug 28, 2014 at 1:13:28 PM

Latest Report: Aug 28, 2014 at 12:50 PM


Visibility: N/A

Pressure: 29.80 "Hg

Humidity: 69%

Dew point: 57 °F

Location of CoventryLocation

Historic Weather in Coventry — Graph

°F

Coventry temperature yesterday

Maximum temperature yesterday: 68 °F (at 2:20 PM)
Minimum temperature yesterday: 48 °F (at 6:50 AM)
Average temperature yesterday: 60 °F

Past Weeks' High & Low Weather Summary

 TemperatureHumidityPressure
High70 °F (Aug 13, 5:20 PM)100% (Aug 14, 1:50 AM)30.15 "Hg (Aug 14, 1:50 AM)
Low41 °F (Aug 21, 6:20 AM)45% (Aug 19, 6:50 PM)29.56 "Hg (Aug 25, 6:50 PM)
Average60 °F73%29.89 "Hg
* Reported Aug 13 11:20 AM — Aug 28 11:50 AM, Coventry, Weather by CustomWeather, © 2014

Note: Actual official high and low records may vary slightly from our data, if they occured in-between our weather recording intervals... More about our weather records

Advertising

Coventry weather history for previous 24 hours

 ConditionsComfort  
Time TempWeatherWind HumidityBarometerVisibility
11:50 AM
Aug 28
66 °FScattered clouds.14 mph73%29.80 "HgN/A
11:20 AM66 °FScattered clouds.13 mph73%29.80 "HgN/A
10:50 AM66 °FScattered clouds.12 mph78%29.80 "HgN/A
10:20 AM64 °FScattered clouds.10 mph83%29.80 "HgN/A
9:50 AM63 °FScattered clouds.10 mph88%29.80 "HgN/A
9:20 AM63 °FPassing clouds.9 mph88%29.80 "HgN/A
8:50 AM63 °FScattered clouds.8 mph88%29.80 "HgN/A
8:20 AM63 °FScattered clouds.8 mph94%29.77 "HgN/A
7:50 AM63 °FBroken clouds.9 mph94%29.77 "HgN/A
7:20 AM63 °FPartly sunny.7 mph94%29.77 "HgN/A
6:50 AM61 °FPassing clouds.5 mph100%29.77 "HgN/A
1:50 AM61 °FPassing clouds.12 mph94%29.80 "Hg5 mi
1:20 AM61 °FPassing clouds.10 mph94%29.80 "Hg4 mi
12:50 AM61 °FPassing clouds.12 mph94%29.80 "Hg3 mi
12:20 AM61 °FPassing clouds.9 mph94%29.80 "Hg4 mi
11:50 PM
Aug 27
61 °FPassing clouds.10 mph94%29.83 "Hg5 mi
11:20 PM61 °FPassing clouds.13 mph94%29.83 "Hg5 mi
10:50 PM61 °FPassing clouds.13 mph88%29.83 "HgN/A
10:20 PM61 °FPassing clouds.10 mph88%29.83 "HgN/A
9:50 PM61 °FPassing clouds.10 mph88%29.86 "HgN/A
9:20 PM63 °FPassing clouds.12 mph83%29.86 "HgN/A
8:50 PM63 °FPartly sunny.10 mph83%29.86 "HgN/A
8:20 PM63 °FPartly sunny.10 mph77%29.86 "HgN/A
7:50 PM63 °FPartly sunny.12 mph77%29.86 "HgN/A
7:20 PM64 °FScattered clouds.9 mph73%29.86 "HgN/A
6:50 PM64 °FScattered clouds.12 mph73%29.86 "HgN/A
6:20 PM64 °FScattered clouds.12 mph73%29.89 "HgN/A
5:20 PM66 °FPassing clouds.13 mph68%29.89 "HgN/A
3:50 PM66 °FPassing clouds.13 mph64%29.92 "HgN/A
3:20 PM66 °FPassing clouds.13 mph64%29.92 "HgN/A
2:50 PM66 °FScattered clouds.13 mph60%29.92 "HgN/A
2:20 PM68 °FScattered clouds.15 mph60%29.95 "HgN/A
1:50 PM66 °FScattered clouds.15 mph64%29.95 "HgN/A
1:20 PM64 °FScattered clouds.13 mph68%29.95 "HgN/A
Weather by CustomWeather, © 2014

See weather overviewHow to use our weather pages